STARLINK-1885 (47168 NORAD) Tracking and Keplerian Element Data
This shows tracking and keplerian element data for the satellite.
Feedback or suggestion? Click here.
Element | Value |
Catalog | 47168 |
Name | STARLINK-1885 |
Epoch Orbit | 185 |
Epoch Day | 99.91667824 |
Epoch Year | 2021 |
RAAN | 78.6629 |
Inclination | 53.0553 |
Eccentricity | 0.000134 |
Argument of Perigee | 79.1018 |
Mean Anonmoly | 41.8556 |
Mean Motion | 15.06388365 |
Decay Rate | 0.00021645 |
L1 | 1 47168U 20088AY 21099.91667824 .00021645 00000-0 14680-2 0 9997 |
L2 | 2 47168 53.0553 78.6629 0001340 79.1018 41.8556 15.06388365 1859 |
Live tracking and technical data element details for STARLINK-1885 (NORAD 47168). STARLINK-1885 can be tracked NOW for your location showing map with azimuth and elevation plus other details from your city location.
Track the satellite on the map from your city or location and see movement details for azimuth, elevation, latitude, longitude, range, height, and movement on the map or in text.
IsCatalogInMostPopularTable: catalog: 47168, numindb: 49
Update: records affected: 1
GetName: 47168 STARLINK-1885
Hit Count: updated at: Sat, 10 Apr 2021 19:29:53 GMT